Total_Precipitation_Accumulation
0.04 0.08 0.09 0.11 0.11 0.08 0.07 0.07 0.12 0.11 0.14 0.10 0.05 0.06 0.06 0.08 0.09 0.11 0.12 0.10 0.08 0.11 0.16 0.19 0.23 0.30 0.32 0.28 0.23 0.28 0.40 0.46 0.51 0.45 0.35 0.30 0.25 0.20 0.19 0.20 0.22 0.26 0.32 0.39
0.03 0.07 0.09 0.09 0.11 0.09 0.05 0.04 0.04 0.04 0.06 0.03 0.04 0.10 0.14 0.10 0.08 0.09 0.09 0.08 0.08 0.11 0.16 0.17 0.16 0.17 0.13 0.12 0.13 0.17 0.24 0.28 0.34 0.36 0.29 0.24 0.19 0.16 0.16 0.18 0.22 0.28 0.33 0.38
0.02 0.07 0.07 0.12 0.12 0.08 0.04 0.03 0.04 0.05 0.06 0.05 0.05 0.07 0.10 0.08 0.06 0.04 0.04 0.03 0.03 0.06 0.08 0.06 0.05 0.05 0.06 0.08 0.11 0.17 0.22 0.27 0.35 0.37 0.33 0.29 0.22 0.19 0.19 0.21 0.24 0.27 0.28 0.28
0.03 0.07 0.16 0.13 0.08 0.07 0.06 0.06 0.06 0.06 0.06 0.07 0.08 0.08 0.09 0.10 0.07 0.04 0.03 0.02 0.01 0.01 0.01 0.01 0.01 0.02 0.04 0.05 0.10 0.15 0.21 0.26 0.31 0.36 0.34 0.31 0.31 0.33 0.34 0.32 0.30 0.30 0.28 0.27
0.06 0.09 0.13 0.10 0.08 0.09 0.09 0.08 0.07 0.09 0.10 0.11 0.12 0.12 0.11 0.08 0.05 0.02 0.01 0.01 0.01 0.01 0.01 0.01 0.01 0.02 0.05 0.08 0.10 0.14 0.20 0.28 0.33 0.37 0.38 0.37 0.39 0.40 0.42 0.42 0.37 0.34 0.32 0.34
0.08 0.12 0.17 0.13 0.12 0.13 0.12 0.21 0.20 0.17 0.15 0.11 0.07 0.08 0.05 0.03 0.01 0.01 0.01 0.00 0.01 0.01 0.01 0.02 0.03 0.06 0.11 0.12 0.14 0.18 0.23 0.30 0.36 0.41 0.45 0.45 0.47 0.48 0.47 0.50 0.44 0.38 0.35 0.38
0.13 0.15 0.15 0.15 0.15 0.13 0.22 0.30 0.16 0.10 0.09 0.08 0.09 0.09 0.06 0.03 0.02 0.01 0.01 0.01 0.01 0.02 0.03 0.05 0.09 0.14 0.16 0.16 0.18 0.19 0.22 0.28 0.39 0.44 0.51 0.54 0.59 0.60 0.60 0.59 0.58 0.54 0.47 0.45
0.16 0.25 0.27 0.19 0.17 0.19 0.20 0.15 0.15 0.14 0.11 0.11 0.10 0.06 0.04 0.03 0.02 0.01 0.01 0.01 0.02 0.02 0.04 0.06 0.11 0.15 0.18 0.19 0.19 0.21 0.26 0.34 0.41 0.46 0.44 0.47 0.63 0.69 0.72 0.75 0.71 0.67 0.63 0.55
0.23 0.28 0.23 0.20 0.22 0.23 0.20 0.17 0.16 0.13 0.09 0.07 0.06 0.05 0.03 0.03 0.02 0.02 0.02 0.03 0.03 0.04 0.07 0.10 0.14 0.20 0.25 0.25 0.28 0.30 0.34 0.40 0.45 0.47 0.51 0.60 0.69 0.74 0.78 0.83 0.81 0.75 0.73 0.69
0.30 0.25 0.24 0.24 0.21 0.17 0.15 0.14 0.12 0.09 0.07 0.06 0.06 0.05 0.05 0.05 0.04 0.04 0.05 0.05 0.06 0.07 0.10 0.14 0.17 0.23 0.31 0.36 0.41 0.42 0.42 0.43 0.46 0.51 0.53 0.58 0.69 0.75 0.80 0.85 0.89 0.87 0.82 0.80
0.25 0.23 0.17 0.19 0.17 0.15 0.15 0.11 0.08 0.07 0.07 0.07 0.07 0.07 0.05 0.06 0.06 0.07 0.06 0.07 0.08 0.13 0.17 0.19 0.24 0.30 0.34 0.41 0.47 0.51 0.51 0.50 0.49 0.53 0.59 0.66 0.72 0.76 0.75 0.81 0.80 0.81 0.82 0.85
0.21 0.23 0.22 0.20 0.15 0.13 0.13 0.12 0.08 0.06 0.06 0.06 0.06 0.06 0.06 0.06 0.07 0.08 0.09 0.11 0.14 0.17 0.19 0.21 0.26 0.34 0.37 0.45 0.55 0.62 0.65 0.65 0.61 0.57 0.62 0.68 0.73 0.70 0.61 0.57 0.54 0.53 0.57 0.61
0.15 0.14 0.12 0.12 0.11 0.08 0.07 0.08 0.07 0.06 0.05 0.05 0.05 0.05 0.06 0.06 0.08 0.09 0.11 0.13 0.16 0.17 0.19 0.22 0.26 0.33 0.38 0.46 0.57 0.68 0.73 0.72 0.68 0.63 0.65 0.68 0.72 0.75 0.78 0.71 0.60 0.54 0.49 0.47
0.11 0.09 0.07 0.06 0.06 0.06 0.06 0.06 0.05 0.05 0.05 0.05 0.06 0.06 0.07 0.08 0.09 0.11 0.14 0.16 0.18 0.20 0.21 0.25 0.30 0.34 0.40 0.50 0.60 0.66 0.71 0.71 0.70 0.68 0.67 0.70 0.71 0.73 0.80 0.90 0.90 0.77 0.58 0.48
0.10 0.10 0.09 0.06 0.05 0.05 0.05 0.05 0.06 0.06 0.05 0.05 0.05 0.06 0.07 0.08 0.10 0.12 0.15 0.18 0.22 0.23 0.26 0.32 0.39 0.42 0.49 0.60 0.68 0.69 0.69 0.67 0.64 0.65 0.66 0.68 0.67 0.69 0.75 0.85 0.94 0.89 0.76 0.62
0.12 0.09 0.07 0.07 0.06 0.07 0.07 0.07 0.07 0.07 0.07 0.07 0.07 0.08 0.09 0.10 0.12 0.15 0.18 0.24 0.33 0.37 0.39 0.44 0.48 0.51 0.60 0.69 0.74 0.74 0.69 0.64 0.64 0.65 0.64 0.63 0.63 0.67 0.74 0.83 0.89 0.87 0.81 0.71
0.14 0.12 0.11 0.11 0.11 0.11 0.11 0.11 0.12 0.12 0.12 0.11 0.11 0.12 0.13 0.14 0.18 0.22 0.25 0.28 0.34 0.38 0.43 0.49 0.51 0.54 0.67 0.77 0.80 0.80 0.72 0.64 0.59 0.60 0.60 0.60 0.64 0.69 0.72 0.76 0.81 0.77 0.70 0.57
0.17 0.18 0.22 0.22 0.19 0.17 0.17 0.17 0.18 0.19 0.18 0.17 0.16 0.15 0.17 0.24 0.33 0.38 0.39 0.39 0.40 0.40 0.40 0.45 0.51 0.58 0.70 0.81 0.85 0.84 0.76 0.65 0.56 0.54 0.56 0.57 0.59 0.66 0.71 0.72 0.70 0.67 0.62 0.49
0.18 0.21 0.24 0.26 0.27 0.28 0.28 0.26 0.25 0.23 0.22 0.22 0.23 0.25 0.28 0.34 0.46 0.50 0.50 0.52 0.59 0.64 0.56 0.51 0.52 0.54 0.63 0.78 0.89 0.90 0.78 0.64 0.54 0.49 0.50 0.51 0.53 0.62 0.69 0.68 0.61 0.58 0.54 0.50
0.23 0.28 0.32 0.36 0.39 0.40 0.38 0.35 0.31 0.28 0.26 0.26 0.27 0.30 0.34 0.42 0.52 0.59 0.60 0.59 0.63 0.73 0.74 0.68 0.57 0.51 0.56 0.70 0.89 0.86 0.77 0.68 0.58 0.48 0.48 0.52 0.53 0.58 0.60 0.59 0.53 0.48 0.45 0.44
0.25 0.31 0.36 0.38 0.39 0.39 0.38 0.36 0.37 0.36 0.34 0.33 0.37 0.42 0.48 0.51 0.54 0.63 0.73 0.68 0.58 0.67 0.76 0.74 0.65 0.55 0.54 0.65 0.82 0.84 0.76 0.67 0.57 0.46 0.43 0.47 0.50 0.54 0.56 0.55 0.49 0.42 0.39 0.39
0.31 0.37 0.37 0.37 0.38 0.38 0.34 0.32 0.32 0.33 0.33 0.36 0.42 0.52 0.66 0.73 0.71 0.69 0.65 0.64 0.64 0.74 0.79 0.73 0.65 0.55 0.49 0.55 0.65 0.74 0.70 0.62 0.55 0.47 0.41 0.41 0.45 0.51 0.51 0.50 0.46 0.42 0.38 0.38
0.22 0.25 0.25 0.25 0.24 0.22 0.19 0.19 0.20 0.23 0.28 0.35 0.46 0.62 0.83 0.88 0.87 0.91 0.77 0.59 0.60 0.70 0.71 0.67 0.59 0.49 0.44 0.45 0.52 0.59 0.60 0.59 0.55 0.46 0.37 0.36 0.38 0.41 0.43 0.40 0.40 0.40 0.36 0.32
0.05 0.07 0.09 0.09 0.11 0.13 0.14 0.14 0.16 0.19 0.27 0.35 0.42 0.58 0.84 1.01 0.90 0.72 0.67 0.64 0.63 0.60 0.57 0.57 0.52 0.45 0.42 0.40 0.42 0.49 0.55 0.57 0.52 0.45 0.37 0.36 0.35 0.36 0.38 0.36 0.35 0.33 0.28 0.28
0.03 0.03 0.03 0.05 0.10 0.15 0.19 0.24 0.27 0.30 0.39 0.46 0.46 0.52 0.68 0.90 0.95 0.71 0.58 0.54 0.55 0.53 0.50 0.52 0.54 0.52 0.45 0.38 0.37 0.44 0.49 0.51 0.50 0.45 0.39 0.37 0.34 0.34 0.36 0.34 0.33 0.31 0.28 0.27
0.03 0.04 0.06 0.09 0.15 0.22 0.30 0.41 0.52 0.57 0.68 0.80 0.77 0.70 0.76 0.81 0.76 0.66 0.55 0.47 0.45 0.47 0.45 0.48 0.53 0.56 0.48 0.41 0.40 0.43 0.46 0.49 0.48 0.45 0.40 0.37 0.34 0.33 0.33 0.30 0.29 0.28 0.25 0.22
0.06 0.07 0.11 0.16 0.20 0.28 0.42 0.57 0.73 0.82 0.94 1.14 1.20 1.01 0.93 0.92 0.82 0.71 0.61 0.53 0.50 0.50 0.47 0.46 0.47 0.49 0.50 0.46 0.42 0.41 0.46 0.52 0.51 0.49 0.46 0.39 0.33 0.32 0.30 0.27 0.25 0.23 0.20 0.18